Retour au catalogue

THORAD DELTA 1 DEB

ActifSSO
NORAD 8564·DEBRIS·🇺🇸 United States

Lancé Nov 15, 1974 depuis Vandenberg Space Force Base

Loading…

Prochains Passages (prochaines 24 heures)

TLE

FraisSource: Space-Track

Époque: Sep 12, 2026, 15:39 UTC

1 08564U 74089DB  26255.65268919  .00000216  00000-0  13132-2 0  9998
2 08564 101.2415 152.6582 0038959 193.3037 194.7735 12.69450661384841

Suivez THORAD DELTA 1 DEB en temps réel avec AllMySat

Download on the App Store